• In Latvia
  • List of Countries
  • For 7 days
  • Water Temperature
  • Satellite Maps
  • Weather Map
  • Weather Widgets
  • user-avatar
    Login

    Hourly Weather Adelaide

    Today, 23 September, Saturday

    Time Temperature Precipitation Wind Pressure Humidity
    00:00 +19°C° 0 mm 1 mps 746 mmHg 55%
    01:00 +19°C° 0 mm 2 mps 745 mmHg 50%
    02:00 +19°C° 0 mm 2 mps 744 mmHg 45%
    03:00 +19°C° 0 mm 3 mps 743 mmHg 42%
    04:00 +19°C° 0 mm 3 mps 743 mmHg 47%
    05:00 +18°C° 0 mm 3 mps 743 mmHg 52%
    06:00 +18°C° 0 mm 3 mps 743 mmHg 57%
    07:00 +19°C° 0 mm 3 mps 743 mmHg 57%
    08:00 +20°C° 0 mm 3 mps 744 mmHg 57%
    09:00 +22°C° 0 mm 7 mps 744 mmHg 53%
    10:00 +22°C° 0 mm 8 mps 744 mmHg 52%
    11:00 +22°C° 0 mm 9 mps 745 mmHg 51%
    12:00 +22°C° 0 mm 10 mps 745 mmHg 50%
    13:00 +21°C° 0 mm 10 mps 745 mmHg 50%
    14:00 +21°C° 0 mm 10 mps 746 mmHg 50%
    15:00 +18°C° 0 mm 9 mps 746 mmHg 55%
    16:00 +17°C° 0 mm 8 mps 747 mmHg 59%
    17:00 +16°C° 0 mm 7 mps 747 mmHg 63%
    18:00 +15°C° 0 mm 7 mps 748 mmHg 67%
    19:00 +14°C° 0.1 mm 7 mps 748 mmHg 69%
    20:00 +14°C° 0.1 mm 7 mps 748 mmHg 71%
    21:00 +14°C° 0.1 mm 7 mps 749 mmHg 73%
    22:00 +12°C° 0.2 mm 7 mps 748 mmHg 76%
    23:00 +12°C° 0.2 mm 8 mps 748 mmHg 79%

    Tomorrow, 24 September, Sunday

    Time Temperature Precipitation Wind Pressure Humidity
    00:00 +12°C° 0.2 mm 8 mps 748 mmHg 81%
    01:00 +11°C° 0.2 mm 8 mps 748 mmHg 81%
    02:00 +11°C° 0.2 mm 8 mps 747 mmHg 80%
    03:00 +11°C° 0.2 mm 8 mps 747 mmHg 80%
    04:00 +11°C° 0.1 mm 8 mps 748 mmHg 79%
    05:00 +11°C° 0.1 mm 8 mps 748 mmHg 78%
    06:00 +11°C° 0.1 mm 8 mps 748 mmHg 76%
    07:00 +12°C° 0.1 mm 8 mps 749 mmHg 74%
    08:00 +12°C° 0.1 mm 9 mps 749 mmHg 71%
    09:00 +13°C° 0.1 mm 9 mps 749 mmHg 68%
    10:00 +13°C° 0.1 mm 9 mps 749 mmHg 65%
    11:00 +14°C° 0.1 mm 10 mps 749 mmHg 62%
    12:00 +14°C° 0.1 mm 10 mps 749 mmHg 60%
    13:00 +14°C° 0.1 mm 10 mps 749 mmHg 59%
    14:00 +15°C° 0.1 mm 9 mps 750 mmHg 59%
    15:00 +15°C° 0.1 mm 9 mps 750 mmHg 58%
    16:00 +15°C° 0 mm 9 mps 750 mmHg 61%
    17:00 +13°C° 0 mm 8 mps 751 mmHg 64%
    18:00 +12°C° 0 mm 7 mps 751 mmHg 66%
    19:00 +12°C° 0 mm 7 mps 752 mmHg 68%
    20:00 +12°C° 0 mm 7 mps 752 mmHg 69%
    21:00 +11°C° 0 mm 7 mps 753 mmHg 71%
    22:00 +11°C° 0 mm 7 mps 753 mmHg 72%
    23:00 +11°C° 0 mm 6 mps 753 mmHg 73%

    Day after tomorrow, 25 September, Monday

    Time Temperature Precipitation Wind Pressure Humidity
    00:00 +11°C° 0 mm 6 mps 753 mmHg 74%
    01:00 +10°C° 0 mm 6 mps 753 mmHg 76%
    02:00 +10°C° 0 mm 5 mps 753 mmHg 78%
    03:00 +10°C° 0 mm 5 mps 752 mmHg 80%
    04:00 +11°C° 0 mm 4 mps 753 mmHg 82%
    05:00 +11°C° 0 mm 4 mps 754 mmHg 84%
    06:00 +10°C° 0 mm 4 mps 754 mmHg 85%
    07:00 +12°C° 0 mm 4 mps 755 mmHg 78%
    08:00 +14°C° 0 mm 4 mps 755 mmHg 71%
    09:00 +15°C° 0 mm 4 mps 756 mmHg 64%
    10:00 +17°C° 0 mm 4 mps 756 mmHg 60%
    11:00 +18°C° 0 mm 3 mps 756 mmHg 56%
    12:00 +19°C° 0 mm 3 mps 756 mmHg 52%
    13:00 +19°C° 0 mm 3 mps 755 mmHg 52%
    14:00 +19°C° 0 mm 3 mps 755 mmHg 53%
    15:00 +19°C° 0 mm 3 mps 755 mmHg 53%
    16:00 +17°C° 0 mm 2 mps 755 mmHg 60%
    17:00 +15°C° 0 mm 2 mps 755 mmHg 67%
    18:00 +14°C° 0 mm 2 mps 756 mmHg 75%
    19:00 +12°C° 0 mm 3 mps 756 mmHg 79%
    20:00 +11°C° 0 mm 3 mps 757 mmHg 83%
    21:00 +10°C° 0 mm 4 mps 757 mmHg 87%
    22:00 +10°C° 0 mm 4 mps 757 mmHg 86%
    23:00 +10°C° 0 mm 4 mps 756 mmHg 84%

    26 September, Tuesday

    Time Temperature Precipitation Wind Pressure Humidity
    00:00 +8°C° 0 mm 4 mps 756 mmHg 82%
    01:00 +8°C° 0 mm 5 mps 755 mmHg 82%
    02:00 +8°C° 0 mm 5 mps 754 mmHg 82%
    03:00 +8°C° 0 mm 6 mps 754 mmHg 82%
    04:00 +9°C° 0 mm 6 mps 754 mmHg 81%
    05:00 +9°C° 0 mm 7 mps 754 mmHg 80%
    06:00 +9°C° 0 mm 7 mps 754 mmHg 79%
    07:00 +11°C° 0 mm 7 mps 753 mmHg 73%
    08:00 +12°C° 0 mm 7 mps 753 mmHg 68%
    09:00 +15°C° 0 mm 7 mps 753 mmHg 62%
    10:00 +18°C° 0 mm 7 mps 752 mmHg 53%
    11:00 +21°C° 0 mm 7 mps 751 mmHg 44%
    12:00 +24°C° 0 mm 7 mps 750 mmHg 35%
    13:00 +26°C° 0 mm 7 mps 749 mmHg 34%
    14:00 +27°C° 0 mm 6 mps 748 mmHg 34%
    15:00 +29°C° 0 mm 5 mps 747 mmHg 33%
    16:00 +26°C° 0 mm 6 mps 747 mmHg 38%
    17:00 +22°C° 0 mm 7 mps 748 mmHg 44%
    18:00 +20°C° 0 mm 8 mps 749 mmHg 49%
    19:00 +18°C° 0 mm 7 mps 749 mmHg 54%
    20:00 +17°C° 0 mm 7 mps 750 mmHg 59%
    21:00 +16°C° 0 mm 6 mps 751 mmHg 64%
    22:00 +15°C° 0 mm 6 mps 751 mmHg 68%
    23:00 +14°C° 0 mm 5 mps 750 mmHg 72%

    27 September, Wednesday

    Time Temperature Precipitation Wind Pressure Humidity
    00:00 +14°C° 0 mm 5 mps 750 mmHg 76%
    01:00 +13°C° 0 mm 5 mps 750 mmHg 79%
    02:00 +13°C° 0 mm 5 mps 750 mmHg 82%
    03:00 +13°C° 0 mm 4 mps 750 mmHg 84%
    04:00 +13°C° 0 mm 5 mps 751 mmHg 84%
    05:00 +13°C° 0 mm 5 mps 751 mmHg 84%
    06:00 +13°C° 0 mm 6 mps 752 mmHg 84%
    07:00 +14°C° 0.1 mm 6 mps 752 mmHg 78%
    08:00 +15°C° 0.1 mm 7 mps 752 mmHg 73%
    09:00 +17°C° 0.1 mm 7 mps 753 mmHg 67%
    10:00 +17°C° 0.1 mm 7 mps 753 mmHg 64%
    11:00 +18°C° 0.1 mm 7 mps 753 mmHg 62%
    12:00 +18°C° 0.1 mm 7 mps 753 mmHg 59%
    13:00 +18°C° 0.1 mm 7 mps 753 mmHg 60%
    14:00 +18°C° 0.1 mm 7 mps 753 mmHg 60%
    15:00 +19°C° 0.1 mm 6 mps 753 mmHg 61%
    16:00 +17°C° 0.3 mm 6 mps 754 mmHg 67%
    17:00 +15°C° 0.3 mm 5 mps 754 mmHg 73%
    18:00 +14°C° 0.3 mm 4 mps 755 mmHg 80%
    19:00 +13°C° 0.1 mm 4 mps 756 mmHg 82%
    20:00 +13°C° 0.1 mm 4 mps 756 mmHg 84%
    21:00 +12°C° 0.1 mm 4 mps 757 mmHg 86%
    22:00 +12°C° 0 mm 3 mps 757 mmHg 87%
    23:00 +12°C° 0 mm 3 mps 757 mmHg 88%

    28 September, Thursday

    Time Temperature Precipitation Wind Pressure Humidity
    00:00 +12°C° 0 mm 2 mps 756 mmHg 89%
    01:00 +12°C° 0 mm 2 mps 756 mmHg 90%
    02:00 +12°C° 0 mm 2 mps 756 mmHg 90%
    03:00 +11°C° 0 mm 1 mps 756 mmHg 91%
    04:00 +11°C° 0.1 mm 1 mps 756 mmHg 92%
    05:00 +12°C° 0.1 mm 2 mps 757 mmHg 92%
    06:00 +12°C° 0.1 mm 2 mps 758 mmHg 92%
    07:00 +13°C° 0.3 mm 2 mps 758 mmHg 86%
    08:00 +15°C° 0.3 mm 2 mps 758 mmHg 79%
    09:00 +16°C° 0.3 mm 2 mps 758 mmHg 72%
    10:00 +17°C° 0.2 mm 3 mps 758 mmHg 69%
    11:00 +17°C° 0.2 mm 3 mps 758 mmHg 65%
    12:00 +18°C° 0.2 mm 3 mps 758 mmHg 62%
    13:00 +18°C° 0.1 mm 4 mps 758 mmHg 60%
    14:00 +18°C° 0.1 mm 4 mps 758 mmHg 59%
    15:00 +18°C° 0.1 mm 4 mps 758 mmHg 57%
    16:00 +17°C° 0 mm 4 mps 758 mmHg 63%
    17:00 +14°C° 0 mm 4 mps 759 mmHg 69%
    18:00 +13°C° 0 mm 4 mps 759 mmHg 75%
    19:00 +12°C° 0 mm 3 mps 760 mmHg 79%
    20:00 +11°C° 0 mm 3 mps 760 mmHg 83%
    21:00 +10°C° 0 mm 2 mps 761 mmHg 86%
    22:00 +10°C° 0 mm 2 mps 761 mmHg 86%
    23:00 +10°C° 0 mm 2 mps 761 mmHg 86%
    Show more